Cittanovese

video

Il capitano della Cittanovese Crucitti: «Convinto della nostra forza» [VIDEO]

Tra le fila giallorosse della Cittanovese è ritornato quest’anno, dopo una breve parentesi a Messina, Antonio Crucitti. Il dinamismo, abbinato alla sua classe cristallina, fa di lui un giocatore che ogni allenatore vorrebbe avere...

Cittanovese-FC Messina, termina a reti bianche

Finisce con un nulla di fatto tra Cittanova e FC Messina. L'assenza di reti non deve lasciar credere si sia trattata di una partita priva di occasioni ed emozione tutt'altro. I pochi presenti al...

Cittanovese, non basta un buon primo tempo arriva solo un pari [FOTO]

Partita piacevole al Morreale Proto tra Cittanovese e Rotonda finita 1-1, risultato che alla fine sembra giusto per i valori dimostrati in campo. I giallorossi hanno giocato meglio nel primo tempo, mentre gli ospiti...

Cittanovese, importante vittoria fra le mura amiche [FOTO]

Il Cittanova Calcio ritrova la vittoria al "Morreale Proto" e si porta a quota 28 punti in classifica. I ragazzi di mister Pietro Infantino hanno la meglio al cospetto di un ostico avversario come...

Serie D girone I: i recuperi infrasettimanali

Ecco il riepilogo di risultati, marcatori, classifiche e prossimo turno delle gare di oggi: Dattilo–Cittanovese: 1-2 Paternò–Rotonda: 0-1 Roccella–Gelbison: 0-1 Foto di copertina tratta dalla pagina facebook SSD Dattilo Calcio 1980

Cittanovese, si ritorna alle origini

La Cittanovese del presidente Guerrisi per questo finale di stagione che vede la squadra giallorossa posizionata nelle parti basse della classifica però con tre partite in meno, dopo attenta riflessione ha deciso di richiamare...

Serie D: i recuperi della domenica

Ecco il riepilogo di risultati, marcatori, classifiche e prossimo turno delle gare di oggi: Biancavilla-Dattilo: 2-0 Cittanovese-Castrovillari: 2-4 FC Messina-Licata: 3-0 Roccella-Rotonda: 1-2

La Cittanovese cambia ancora, esonerato Nocera

Costa caro a Graziano Nocera il ko interno (2-4) contro la squadra che lo ha visto protagonista da calciatore, il Castrovillari. La dirigenza infatti ha deciso di sollevare dall'incarico il tecnico di Gioia Tauro, il...

Cittanovese – Città di Sant’Agata: il match termina 0-0

Si è giocata oggi la 21esima giornata di Serie D con la Cittanovese impegnata in casa contro il Città di Sant’Agata. Il match è terminato a reti inviolate. Primo quarto d’ora equilibrato con occasioni da...

Cittanovese-Città di Sant’Agata: le parole di Nocera alla vigilia del match

Secondo impegno casalingo consecutivo per la Cittanovese che affronterà domani il Città di Sant'Agata nella partita valida per la 21esima giornata di Serie D del girone I. I giallorossi, reduci dal pareggio di mercoledì...

Cittanovese, in inferiorità numerica pareggia nel finale

Partita di recupero della 14esima giornata del campionato di serie D tra Cittanovese e Paternò che chiudono con il risultato di 1-1 sul sintetico del “Morreale-Proto” di Cittanova. Primo tempo con le due squadre che...

Cittanovese-Paternò: le parole di Nocera alla vigilia del match

La Cittanovese sarà impegnata domani nella sfida casalinga contro il Paternò per il recupero della 14esima giornata. I giallorossi, a caccia di punti preziosi, dovranno ripartire dal pareggio rimediato contro il Marina di Ragusa. Nella...
DataCasaRisultatiTrasfertaOra
2021-06-06 15:00:0006/06/21- 15:00:0015:00
2021-05-30 15:00:0030/05/21- 15:00:0015:00
2021-05-23 15:00:0023/05/21- 15:00:0015:00
2021-05-16 15:00:0016/05/21- 15:00:0015:00
2021-05-09 15:00:0009/05/21- 15:00:0015:00
2021-05-02 15:00:0002/05/21- 15:00:0015:00
2021-05-01 15:00:0001/05/21- 15:00:0015:00
2021-04-18 15:00:0018/04/212 - 1 15:00:0015:00
2021-04-14 15:00:0014/04/210 - 0 15:00:0015:00
2021-04-11 15:00:0011/04/211 - 0 15:00:0015:00
2021-04-01 15:00:0001/04/211 - 1 15:00:0015:00
2021-03-28 15:00:0028/03/213 - 2 15:00:0015:00
2021-03-21 15:00:0021/03/212 - 2 15:00:0015:00
2021-03-07 15:00:0007/03/210 - 0 15:00:0015:00
2021-02-28 15:00:0028/02/210 - 0 15:00:0015:00
2021-02-24 15:00:0024/02/212 - 2 15:00:0015:00
2021-02-21 15:00:0021/02/210 - 0 15:00:0015:00
2021-02-14 15:00:0014/02/213 - 0 15:00:0015:00
2021-02-07 15:00:0007/02/21- 15:00:0015:00
2021-02-03 15:00:0003/02/211 - 0 15:00:0015:00
2021-01-31 15:00:0031/01/211 - 1 15:00:0015:00
2021-01-24 15:00:0024/01/211 - 2 15:00:0015:00
2021-01-17 15:00:0017/01/212 - 4 15:00:0015:00
2021-01-10 15:00:0010/01/210 - 2 15:00:0015:00
2021-01-06 15:00:0006/01/211 - 5 15:00:0015:00
2020-12-23 15:00:0023/12/203 - 1 15:00:0015:00
2020-12-20 15:00:0020/12/201 - 4 15:00:0015:00
2020-12-13 15:00:0013/12/202 - 1 15:00:0015:00
2020-11-01 15:00:0001/11/202 - 1 15:00:0015:00
2020-10-25 15:00:0025/10/201 - 0 15:00:0015:00
2020-10-18 15:00:0018/10/201 - 2 15:00:0015:00
2020-10-11 15:00:0011/10/202 - 0 15:00:0015:00
2020-10-04 15:00:0004/10/200 - 4 15:00:0015:00
2020-09-27 15:00:0027/09/202 - 2 15:00:0015:00
2020-05-03 15:00:0003/05/20- 15:00:0015:00
2020-04-26 15:00:0026/04/20- 15:00:0015:00
2020-04-19 15:00:0019/04/20- 15:00:0015:00
2020-04-09 15:00:0009/04/20- 15:00:0015:00
2020-04-05 15:00:0005/04/20- 15:00:0015:00
2020-03-29 15:00:0029/03/20- 15:00:0015:00
2020-03-22 14:30:0022/03/20- 14:30:0014:30
2020-03-08 14:30:0008/03/20- 14:30:0014:30
2020-03-01 14:30:0001/03/201 - 0 14:30:0014:30
2020-02-23 14:30:0023/02/201 - 1 14:30:0014:30
2020-02-16 14:30:0016/02/202 - 0 14:30:0014:30
2020-02-09 14:30:0009/02/202 - 4 14:30:0014:30
2020-02-02 14:30:0002/02/203 - 0 14:30:0014:30
2020-01-26 14:30:0026/01/200 - 0 14:30:0014:30
2020-01-19 14:30:0019/01/202 - 0 14:30:0014:30
2020-01-12 14:30:0012/01/201 - 0 14:30:0014:30
2020-01-05 14:30:0005/01/203 - 1 14:30:0014:30
2019-12-22 14:30:0022/12/191 - 4 14:30:0014:30
2019-12-15 14:30:0015/12/192 - 1 14:30:0014:30
2019-12-08 14:30:0008/12/192 - 0 14:30:0014:30
2019-12-01 14:30:0001/12/191 - 3 14:30:0014:30
2019-11-24 14:30:0024/11/193 - 0 14:30:0014:30
2019-11-17 14:30:0017/11/192 - 0 14:30:0014:30
2019-11-10 14:30:0010/11/193 - 1 14:30:0014:30
2019-11-03 14:30:0003/11/192 - 1 14:30:0014:30
2019-10-27 14:30:0027/10/190 - 1 14:30:0014:30
2019-10-20 15:00:0020/10/192 - 0 15:00:0015:00
2019-10-13 15:00:0013/10/192 - 1 15:00:0015:00
2019-10-06 15:00:0006/10/194 - 1 15:00:0015:00
2019-09-29 15:00:0029/09/192 - 1 15:00:0015:00
2019-09-22 15:00:0022/09/190 - 1 15:00:0015:00
2019-09-15 15:00:0015/09/190 - 0 15:00:0015:00
2019-09-08 15:00:0008/09/193 - 2 15:00:0015:00
2019-09-01 15:00:0001/09/190 - 1 15:00:0015:00
2019-05-05 15:00:0005/05/191 - 1 15:00:0015:00
2019-04-28 15:00:0028/04/190 - 1 15:00:0015:00
2019-04-18 15:00:0018/04/190 - 0 15:00:0015:00
2019-04-14 15:00:0014/04/193 - 3 15:00:0015:00
2019-04-07 15:00:0007/04/192 - 1 15:00:0015:00
2019-03-31 15:00:0031/03/192 - 1 15:00:0015:00
2019-03-24 14:30:0024/03/191 - 6 14:30:0014:30
2019-03-17 14:30:0017/03/192 - 2 14:30:0014:30
2019-03-03 14:30:0003/03/193 - 2 14:30:0014:30
2019-02-24 14:30:0024/02/190 - 1 14:30:0014:30
2019-02-17 14:30:0017/02/192 - 0 14:30:0014:30
2019-02-10 14:30:0010/02/191 - 0 14:30:0014:30
2019-02-03 14:30:0003/02/192 - 1 14:30:0014:30
2019-01-27 14:30:0027/01/193 - 5 14:30:0014:30
2019-01-20 14:30:0020/01/193 - 2 14:30:0014:30
2019-01-13 14:30:0013/01/190 - 1 14:30:0014:30
2019-01-06 14:30:0006/01/191 - 1 14:30:0014:30
2018-12-23 14:30:0023/12/182 - 2 14:30:0014:30
2018-12-16 14:30:0016/12/184 - 1 14:30:0014:30
2018-12-12 14:30:0012/12/183 - 1 14:30:0014:30
2018-12-09 14:30:0009/12/181 - 3 14:30:0014:30
2018-12-02 14:30:0002/12/182 - 1 14:30:0014:30
2018-11-25 14:30:0025/11/181 - 0 14:30:0014:30
2018-11-18 14:30:0018/11/180 - 2 14:30:0014:30
2018-11-14 14:30:0014/11/180 - 2 14:30:0014:30
2018-11-11 14:30:0011/11/181 - 3 14:30:0014:30
2018-11-04 14:30:0004/11/183 - 0 14:30:0014:30
2018-10-28 14:30:0028/10/183 - 2 14:30:0014:30
2018-10-21 15:00:0021/10/180 - 4 15:00:0015:00
2018-10-14 15:00:0014/10/180 - 0 15:00:0015:00
2018-10-07 15:00:0007/10/182 - 2 15:00:0015:00
2018-09-30 15:00:0030/09/183 - 0 15:00:0015:00
2018-09-23 15:00:0023/09/181 - 0 15:00:0015:00
2018-09-16 15:00:0016/09/183 - 2 15:00:0015:00
2018-05-06 15:00:0006/05/185 - 0 15:00:0015:00
2018-04-29 15:00:0029/04/183 - 0 15:00:0015:00
2018-04-22 15:00:0022/04/180 - 0 15:00:0015:00
2018-04-15 15:00:0015/04/180 - 3 15:00:0015:00
2018-04-08 15:00:0008/04/180 - 0 15:00:0015:00
2018-03-29 15:00:0029/03/185 - 0 15:00:0015:00
2018-03-25 15:00:0025/03/182 - 1 15:00:0015:00
2018-03-18 14:30:0018/03/181 - 0 14:30:0014:30
2018-03-04 14:30:0004/03/181 - 0 14:30:0014:30
2018-02-25 14:30:0025/02/182 - 4 14:30:0014:30
2018-02-18 14:30:0018/02/180 - 0 14:30:0014:30
2018-02-11 14:30:0011/02/181 - 2 14:30:0014:30
2018-02-04 14:30:0004/02/182 - 0 14:30:0014:30
2018-01-28 14:30:0028/01/183 - 1 14:30:0014:30
2018-01-21 14:30:0021/01/183 - 0 14:30:0014:30
2018-01-14 14:30:0014/01/181 - 1 14:30:0014:30
2018-01-07 14:30:0007/01/183 - 0 14:30:0014:30
2017-12-17 14:30:0017/12/170 - 0 14:30:0014:30
2017-12-10 14:30:0010/12/175 - 0 14:30:0014:30
2017-12-03 14:30:0003/12/173 - 1 14:30:0014:30
2017-11-26 14:30:0026/11/171 - 0 14:30:0014:30
2017-11-19 14:30:0019/11/170 - 1 14:30:0014:30
2017-11-12 14:30:0012/11/170 - 1 14:30:0014:30
2017-11-05 14:30:0005/11/173 - 2 14:30:0014:30
2017-11-01 14:30:0001/11/172 - 2 14:30:0014:30
2017-10-29 14:30:0029/10/172 - 1 14:30:0014:30
2017-10-22 15:00:0022/10/174 - 0 15:00:0015:00
2017-10-15 15:00:0015/10/171 - 1 15:00:0015:00
2017-10-08 15:00:0008/10/173 - 4 15:00:0015:00
2017-10-01 15:00:0001/10/171 - 1 15:00:0015:00
2017-09-24 15:00:0024/09/171 - 1 15:00:0015:00
2017-09-17 15:00:0017/09/171 - 0 15:00:0015:00
2017-09-10 15:00:0010/09/171 - 0 15:00:0015:00
2017-09-03 15:00:0003/09/170 - 2 15:00:0015:00